Hourly Weather Barra da Estiva

Today, 2 October, Friday

Time Temperature Precipitation Wind Pressure Humidity
00:00 +19°C° 0 mm 1 mps 674 mmHg 95%
01:00 +19°C° 0 mm 1 mps 674 mmHg 95%
02:00 +18°C° 0 mm 1 mps 674 mmHg 94%
03:00 +18°C° 0 mm 1 mps 673 mmHg 94%
04:00 +18°C° 0 mm 1 mps 674 mmHg 92%
05:00 +17°C° 0 mm 2 mps 674 mmHg 91%
06:00 +17°C° 0 mm 2 mps 675 mmHg 89%
07:00 +19°C° 0 mm 2 mps 675 mmHg 80%
08:00 +20°C° 0 mm 3 mps 676 mmHg 71%
09:00 +22°C° 0 mm 3 mps 677 mmHg 63%
10:00 +25°C° 0 mm 3 mps 676 mmHg 54%
11:00 +27°C° 0 mm 4 mps 676 mmHg 45%
12:00 +29°C° 0 mm 4 mps 676 mmHg 37%
13:00 +29°C° 0 mm 4 mps 676 mmHg 33%
14:00 +30°C° 0 mm 4 mps 675 mmHg 30%
15:00 +32°C° 0 mm 4 mps 674 mmHg 27%
16:00 +29°C° 0 mm 3 mps 674 mmHg 32%
17:00 +27°C° 0 mm 3 mps 674 mmHg 37%
18:00 +25°C° 0 mm 2 mps 674 mmHg 42%
19:00 +24°C° 0 mm 2 mps 674 mmHg 49%
20:00 +22°C° 0 mm 3 mps 675 mmHg 56%
21:00 +20°C° 0 mm 3 mps 675 mmHg 63%
22:00 +19°C° 0 mm 2 mps 675 mmHg 69%
23:00 +18°C° 0 mm 2 mps 675 mmHg 76%

Tomorrow, 3 October, Saturday

Time Temperature Precipitation Wind Pressure Humidity
00:00 +18°C° 0 mm 1 mps 675 mmHg 82%
01:00 +18°C° 0 mm 1 mps 674 mmHg 85%
02:00 +16°C° 0 mm 1 mps 674 mmHg 88%
03:00 +15°C° 0 mm 1 mps 673 mmHg 91%
04:00 +15°C° 0 mm 1 mps 674 mmHg 92%
05:00 +15°C° 0 mm 1 mps 674 mmHg 92%
06:00 +15°C° 0 mm 1 mps 674 mmHg 93%
07:00 +18°C° 0 mm 2 mps 675 mmHg 78%
08:00 +21°C° 0 mm 2 mps 676 mmHg 63%
09:00 +25°C° 0 mm 2 mps 677 mmHg 47%
10:00 +27°C° 0 mm 3 mps 677 mmHg 40%
11:00 +29°C° 0 mm 4 mps 677 mmHg 32%
12:00 +30°C° 0 mm 4 mps 676 mmHg 25%
13:00 +32°C° 0 mm 4 mps 676 mmHg 24%
14:00 +32°C° 0 mm 4 mps 675 mmHg 22%
15:00 +33°C° 0 mm 4 mps 675 mmHg 21%
16:00 +30°C° 0 mm 3 mps 675 mmHg 26%
17:00 +27°C° 0 mm 3 mps 674 mmHg 31%
18:00 +25°C° 0 mm 3 mps 674 mmHg 36%
19:00 +24°C° 0 mm 2 mps 674 mmHg 42%
20:00 +23°C° 0 mm 2 mps 675 mmHg 49%
21:00 +20°C° 0 mm 2 mps 675 mmHg 55%
22:00 +19°C° 0 mm 2 mps 675 mmHg 61%
23:00 +19°C° 0 mm 1 mps 674 mmHg 66%

Day after tomorrow, 4 October, Sunday

Time Temperature Precipitation Wind Pressure Humidity
00:00 +18°C° 0 mm 1 mps 674 mmHg 72%
01:00 +18°C° 0 mm 1 mps 674 mmHg 76%
02:00 +16°C° 0 mm 1 mps 674 mmHg 80%
03:00 +16°C° 0 mm 1 mps 673 mmHg 84%
04:00 +15°C° 0 mm 1 mps 674 mmHg 86%
05:00 +15°C° 0 mm 1 mps 674 mmHg 88%
06:00 +15°C° 0 mm 1 mps 674 mmHg 90%
07:00 +18°C° 0 mm 2 mps 675 mmHg 80%
08:00 +20°C° 0 mm 2 mps 676 mmHg 70%
09:00 +22°C° 0 mm 3 mps 677 mmHg 59%
10:00 +25°C° 0 mm 3 mps 677 mmHg 49%
11:00 +27°C° 0 mm 4 mps 676 mmHg 38%
12:00 +30°C° 0 mm 4 mps 676 mmHg 28%
13:00 +30°C° 0 mm 4 mps 676 mmHg 26%
14:00 +32°C° 0 mm 4 mps 675 mmHg 24%
15:00 +32°C° 0 mm 4 mps 675 mmHg 22%
16:00 +29°C° 0 mm 4 mps 675 mmHg 26%
17:00 +28°C° 0 mm 4 mps 675 mmHg 29%
18:00 +26°C° 0 mm 4 mps 675 mmHg 33%
19:00 +23°C° 0 mm 4 mps 675 mmHg 43%
20:00 +22°C° 0 mm 3 mps 675 mmHg 53%
21:00 +20°C° 0 mm 3 mps 675 mmHg 62%
22:00 +19°C° 0 mm 3 mps 675 mmHg 71%
23:00 +18°C° 0 mm 2 mps 675 mmHg 80%

5 October, Monday

Time Temperature Precipitation Wind Pressure Humidity
00:00 +18°C° 0 mm 1 mps 675 mmHg 88%
01:00 +16°C° 0 mm 1 mps 675 mmHg 90%
02:00 +16°C° 0 mm 2 mps 674 mmHg 92%
03:00 +16°C° 0 mm 2 mps 674 mmHg 94%
04:00 +16°C° 0 mm 2 mps 674 mmHg 91%
05:00 +16°C° 0 mm 2 mps 675 mmHg 88%
06:00 +16°C° 0 mm 2 mps 675 mmHg 85%
07:00 +18°C° 0 mm 3 mps 676 mmHg 76%
08:00 +20°C° 0 mm 3 mps 676 mmHg 66%
09:00 +22°C° 0 mm 4 mps 677 mmHg 56%
10:00 +25°C° 0 mm 4 mps 677 mmHg 49%
11:00 +27°C° 0 mm 5 mps 677 mmHg 42%
12:00 +29°C° 0 mm 5 mps 677 mmHg 35%
13:00 +30°C° 0 mm 5 mps 676 mmHg 33%
14:00 +30°C° 0 mm 5 mps 676 mmHg 31%
15:00 +32°C° 0 mm 5 mps 676 mmHg 30%
16:00 +29°C° 0 mm 5 mps 675 mmHg 36%
17:00 +27°C° 0 mm 4 mps 675 mmHg 42%
18:00 +25°C° 0 mm 3 mps 675 mmHg 48%
19:00 +24°C° 0 mm 3 mps 675 mmHg 58%
20:00 +21°C° 0 mm 3 mps 675 mmHg 68%
21:00 +20°C° 0 mm 3 mps 676 mmHg 79%
22:00 +19°C° 0 mm 2 mps 675 mmHg 84%
23:00 +18°C° 0 mm 2 mps 675 mmHg 89%

6 October, Tuesday

Time Temperature Precipitation Wind Pressure Humidity
00:00 +18°C° 0 mm 1 mps 675 mmHg 94%
01:00 +16°C° 0 mm 1 mps 675 mmHg 95%
02:00 +16°C° 0 mm 1 mps 675 mmHg 95%
03:00 +15°C° 0 mm 1 mps 674 mmHg 96%
04:00 +15°C° 0 mm 1 mps 674 mmHg 95%
05:00 +15°C° 0 mm 1 mps 674 mmHg 94%
06:00 +15°C° 0 mm 1 mps 674 mmHg 93%
07:00 +18°C° 0 mm 2 mps 675 mmHg 78%
08:00 +21°C° 0 mm 3 mps 676 mmHg 64%
09:00 +25°C° 0 mm 4 mps 677 mmHg 49%
10:00 +26°C° 0 mm 4 mps 677 mmHg 46%
11:00 +28°C° 0 mm 5 mps 676 mmHg 43%
12:00 +29°C° 0 mm 5 mps 676 mmHg 40%
13:00 +30°C° 0 mm 5 mps 676 mmHg 38%
14:00 +30°C° 0 mm 5 mps 675 mmHg 37%
15:00 +30°C° 0 mm 5 mps 675 mmHg 35%
16:00 +28°C° 0 mm 4 mps 675 mmHg 40%
17:00 +27°C° 0 mm 3 mps 675 mmHg 45%
18:00 +25°C° 0 mm 2 mps 674 mmHg 51%
19:00 +23°C° 0 mm 2 mps 675 mmHg 58%
20:00 +21°C° 0 mm 2 mps 675 mmHg 65%
21:00 +20°C° 0 mm 2 mps 675 mmHg 73%
22:00 +20°C° 0 mm 1 mps 675 mmHg 78%
23:00 +19°C° 0 mm 1 mps 675 mmHg 83%

7 October, Wednesday

Time Temperature Precipitation Wind Pressure Humidity
00:00 +19°C° 0 mm 1 mps 675 mmHg 87%
01:00 +18°C° 0 mm 1 mps 675 mmHg 90%
02:00 +18°C° 0 mm 1 mps 674 mmHg 92%
03:00 +16°C° 0 mm 1 mps 674 mmHg 94%
04:00 +16°C° 0 mm 1 mps 674 mmHg 92%
05:00 +18°C° 0 mm 1 mps 675 mmHg 91%
06:00 +17°C° 0 mm 2 mps 675 mmHg 89%
07:00 +20°C° 0 mm 2 mps 676 mmHg 75%
08:00 +23°C° 0 mm 2 mps 677 mmHg 61%
09:00 +26°C° 0 mm 3 mps 677 mmHg 47%
10:00 +28°C° 0 mm 3 mps 677 mmHg 41%
11:00 +30°C° 0 mm 3 mps 677 mmHg 35%
12:00 +32°C° 0 mm 4 mps 677 mmHg 29%
13:00 +33°C° 0 mm 4 mps 676 mmHg 27%
14:00 +33°C° 0 mm 4 mps 676 mmHg 26%
15:00 +34°C° 0 mm 4 mps 675 mmHg 25%
16:00 +32°C° 0 mm 4 mps 675 mmHg 30%
17:00 +29°C° 0 mm 3 mps 675 mmHg 34%
18:00 +27°C° 0 mm 3 mps 675 mmHg 39%
19:00 +25°C° 0 mm 3 mps 675 mmHg 41%
20:00 +24°C° 0 mm 3 mps 675 mmHg 44%
21:00 +22°C° 0 mm 3 mps 676 mmHg 46%
22:00 +23°C° 0 mm 2 mps 676 mmHg 51%
23:00 +21°C° 0 mm 2 mps 675 mmHg 55%
Show more